{"data":{"norad_id":32395,"epoch":"2026-09-18T23:58:35.768640Z","epoch_age_seconds":144067,"freshness":"FRESH","line1":"1 32395U 07065C   26261.99902510 -.00000007  00000+0  00000+0 0  9998","line2":"2 32395  64.3275 188.8269 0017448 359.7210 199.4072  2.13100111145725","mean_motion":2.13100111,"eccentricity":0.0017448,"inclination_deg":64.3275,"raan_deg":188.8269,"arg_perigee_deg":359.721,"mean_anomaly_deg":199.4072,"bstar":0,"rev_number":14572,"period_min":675.73873764899,"perigee_km":19085.531505126,"apogee_km":19174.544833196,"semimajor_km":25508.175169161,"source":"CELESTRAK","updated_at":"2026-09-20T09:00:46.273925Z"}}